Theta_e
336 336 335 336 337 337 336 336 336 334 333 332 329 325 321 321 321 322 325 328 330 325 327 332 332 332 331 331 330 329 328 327 326
336 336 334 336 336 335 336 335 334 334 334 332 331 328 326 324 323 323 327 328 328 326 319 317 317 316 322 325 327 327 326 325 325
336 335 335 337 335 335 335 335 335 332 332 333 331 328 328 327 327 326 328 327 328 325 320 319 319 316 317 319 320 322 323 324 324
334 334 335 336 336 335 334 334 334 332 330 332 331 328 328 329 328 328 328 328 328 324 322 321 320 318 317 317 317 317 320 322 324
335 334 336 337 337 332 331 333 333 333 331 328 328 329 329 329 329 328 328 329 328 324 323 323 323 322 321 319 318 317 318 320 322
333 332 331 328 328 328 330 331 332 331 330 326 324 326 328 326 327 329 328 329 330 326 324 324 324 324 324 323 322 322 320 317 318
329 328 326 325 324 324 324 324 324 323 322 323 322 325 326 324 323 326 327 328 331 330 327 326 325 325 326 325 325 324 323 320 317
325 324 323 322 321 321 320 320 319 320 325 326 326 325 324 324 324 323 324 325 327 334 332 328 328 328 328 328 327 327 326 324 321
325 325 325 325 326 326 326 326 325 325 328 328 327 327 326 325 325 324 324 324 325 326 330 331 331 332 330 328 328 327 327 327 326
330 330 329 329 328 327 328 329 330 330 329 328 328 328 327 326 326 327 326 327 327 328 327 328 331 330 329 328 328 326 327 327 327
332 333 332 329 327 329 329 330 329 329 328 329 329 330 330 330 331 330 329 330 329 329 329 329 328 329 329 328 326 325 325 324 325
335 334 332 330 329 328 328 328 327 327 330 331 331 331 331 330 329 328 328 328 328 329 329 330 328 329 328 327 325 325 324 322 322
335 335 332 330 330 329 328 327 326 328 330 330 332 331 330 328 328 328 329 329 328 327 328 330 329 329 328 328 326 323 321 319 317
334 333 332 330 329 328 328 327 328 331 332 331 329 329 329 329 329 327 326 326 326 326 327 330 330 329 328 325 325 321 318 317 316
333 333 332 331 328 328 330 330 331 331 331 330 331 331 330 327 327 326 325 325 325 326 327 329 329 327 327 325 321 318 318 317 315
333 333 332 330 328 330 332 333 332 332 332 331 330 328 327 325 324 324 324 324 324 325 327 328 327 326 325 321 319 317 316 316 316
334 333 332 330 329 330 332 333 333 331 332 330 328 329 326 323 323 323 324 323 324 325 326 326 325 323 321 319 317 315 313 313 316
333 332 331 331 331 331 333 334 332 331 330 329 328 328 327 324 322 321 321 321 321 322 324 323 321 319 318 316 315 314 312 312 313
333 332 331 331 331 332 331 330 332 331 329 328 328 328 326 326 325 320 319 318 318 319 319 318 317 317 316 315 313 313 313 315 311
333 332 332 332 331 328 329 329 329 329 328 326 324 323 323 323 324 322 320 317 317 317 316 316 316 315 314 312 311 311 310 314 311
Wind_Speed
19 19 20 20 19 17 16 16 15 14 14 14 14 14 15 14 15 15 14 12 11 12 10 8 9 9 9 9 9 10 11 11 11
18 17 18 18 17 16 14 15 13 13 11 11 12 12 13 14 14 13 12 11 11 11 11 10 9 8 9 10 10 10 10 10 10
18 17 17 15 15 14 14 13 11 9 9 10 10 9 9 10 11 12 11 10 10 10 11 10 10 10 10 10 10 10 10 10 10
18 17 16 14 13 13 13 12 10 8 8 9 6 6 7 7 7 8 9 9 8 8 9 9 10 10 10 10 10 11 10 9 9
16 17 15 14 12 12 12 11 9 8 6 6 5 4 4 4 4 4 6 6 6 7 7 7 8 9 9 9 10 11 10 9 8
15 15 15 14 12 11 10 10 8 6 4 3 2 2 2 3 3 1 2 3 3 5 6 6 6 7 7 7 8 9 8 7 7
15 14 13 12 11 10 9 8 7 6 4 2 1 2 1 2 3 1 0 1 1 4 5 5 5 5 5 6 6 7 7 7 7
13 13 12 11 10 9 8 7 6 5 4 2 1 1 1 2 2 2 1 2 2 3 6 7 6 5 5 6 7 7 7 6 7
13 11 11 10 9 8 7 6 6 6 4 2 1 1 1 2 2 2 3 3 4 4 5 7 8 7 6 8 8 9 8 7 7
12 11 9 9 8 8 7 6 5 4 4 3 3 3 3 3 3 3 4 4 5 6 7 8 9 8 7 6 5 7 7 9 9
13 11 9 8 8 7 7 6 5 5 4 3 2 2 2 2 2 5 6 6 7 8 10 10 11 7 5 4 4 4 5 5 8
15 12 12 10 8 8 8 7 6 5 4 3 4 4 2 4 6 7 8 9 9 11 13 11 11 8 7 4 0 1 3 6 6
18 15 13 12 11 11 10 8 8 6 5 5 4 4 7 8 8 10 11 11 11 14 13 12 12 11 9 4 3 1 5 7 7
20 17 16 13 13 12 12 11 9 7 7 5 7 10 8 9 10 11 13 15 15 13 11 10 9 8 4 4 1 6 9 9 9
21 20 18 16 15 15 13 13 12 11 7 9 9 8 8 9 13 15 15 14 12 11 9 7 6 4 6 4 3 3 3 6 8
22 22 20 19 18 17 17 15 13 9 9 6 6 8 10 11 9 6 4 4 4 4 5 7 9 11 12 9 5 2 2 6 9
27 28 21 21 21 20 20 18 11 9 9 4 0 2 5 3 2 1 1 1 2 1 3 7 9 9 7 4 5 2 4 7 10
24 28 24 22 22 23 20 19 14 11 9 7 4 1 3 2 3 1 2 2 3 4 6 9 10 8 6 5 3 3 6 10 13
22 24 22 21 20 16 12 11 11 8 7 6 8 13 9 4 3 1 2 3 4 4 6 7 7 7 7 6 5 4 6 11 12
15 20 21 16 11 6 6 8 9 7 5 6 6 6 7 6 8 5 5 4 4 6 7 9 9 8 7 5 3 3 4 10 7
Wind_Direction
135 136 140 139 135 129 129 122 114 115 113 108 97 91 88 87 84 83 81 78 78 83 84 84 76 70 63 54 48 47 45 41 43
135 138 138 138 138 134 131 126 123 115 112 116 103 93 89 85 82 81 78 77 75 71 70 69 69 62 56 53 50 51 49 45 46
135 137 138 135 140 138 136 132 128 113 106 124 107 93 89 83 80 79 79 74 72 67 61 59 57 55 53 52 51 53 51 48 47
138 137 135 136 139 146 148 145 139 126 106 114 111 91 88 78 74 74 78 76 71 62 57 53 50 48 47 47 48 48 48 47 49
140 138 138 139 144 153 157 158 155 151 137 124 115 100 76 60 66 70 70 73 63 52 48 45 43 40 39 41 40 42 40 40 42
147 146 144 144 150 151 156 165 171 171 170 161 153 145 80 44 42 95 78 71 53 39 36 31 29 29 28 32 34 34 31 37 40
154 152 150 151 157 160 164 172 181 183 184 178 154 152 30 15 17 27 316 347 348 349 9 9 4 4 6 12 17 20 18 20 26
164 165 164 165 172 178 181 187 189 191 182 194 202 239 288 346 346 354 309 298 293 281 319 340 338 339 343 349 351 347 349 357 4
174 177 177 179 186 192 198 194 191 180 180 186 201 259 294 317 329 322 313 313 299 290 289 300 308 310 318 325 334 331 326 332 332
189 189 199 200 204 209 204 194 194 200 210 232 250 262 281 292 296 307 300 304 308 305 297 295 294 312 323 318 317 335 324 308 309
194 200 208 208 209 210 204 213 220 224 223 227 245 266 278 292 317 330 324 312 305 303 299 284 292 291 297 308 331 9 13 350 308
204 208 209 207 207 212 219 228 229 223 235 233 264 273 262 296 304 305 305 297 281 296 295 294 288 278 275 270 299 234 344 350 350
209 214 218 213 212 216 226 226 223 223 238 259 268 286 287 295 290 290 295 292 290 296 288 283 276 262 260 231 210 336 13 354 346
217 215 217 214 222 219 215 215 214 220 236 259 278 277 276 284 295 293 296 295 286 282 282 272 265 257 254 195 119 15 8 7 355
226 230 227 217 214 213 213 216 213 222 250 268 280 285 295 299 291 296 302 297 286 272 266 263 247 204 195 174 134 71 15 2 352
235 235 230 224 215 214 212 217 220 227 244 258 289 292 291 298 300 311 330 4 353 279 231 198 185 188 189 188 195 202 350 349 343
237 239 226 222 220 216 216 212 209 225 214 228 171 296 302 323 94 118 133 78 60 17 182 181 181 174 191 196 208 253 323 337 343
240 242 231 220 221 222 217 219 219 225 222 231 226 242 235 293 249 216 196 204 185 166 178 178 180 187 195 209 241 285 331 337 333
242 236 235 226 217 223 225 225 232 225 225 245 251 252 255 248 256 191 189 175 192 196 197 201 199 196 204 219 245 273 332 341 334
243 231 207 203 165 202 237 239 236 243 300 254 237 251 259 247 249 271 220 234 228 235 228 225 225 222 223 225 255 306 346 9 13